GFSNIL_sfc_avort_003.txt.gz
Vorticity
nan nan nan nan nan nan nan nan nan nan nan nan nan nan nan nan nan nan nan nan nan nan
nan 8 8 7 9 8 8 7 7 8 8 8 8 8 9 9 8 8 8 10 9 nan
nan 7 8 7 7 8 8 8 7 8 8 8 8 8 10 8 8 9 9 7 8 nan
nan 7 8 7 7 8 8 8 8 7 8 7 8 9 8 8 9 9 8 8 8 nan
nan 7 7 8 8 8 8 8 8 8 8 8 8 8 9 9 10 8 9 9 9 nan
nan 7 8 8 8 8 8 8 8 8 8 9 9 9 9 10 9 9 10 10 9 nan
nan 7 8 8 8 8 8 8 8 8 9 10 9 10 11 9 9 10 10 10 10 nan
nan 8 8 8 8 8 9 8 8 9 10 10 12 7 6 8 9 10 10 11 11 nan
nan 8 8 8 8 8 8 9 10 10 10 11 6 2 7 10 12 10 11 11 11 nan
nan 8 8 8 8 8 9 10 10 10 10 10 6 6 10 13 14 12 10 10 10 nan
nan 8 8 8 8 9 10 10 11 10 9 11 7 6 10 16 14 11 10 10 10 nan
nan 8 8 8 9 10 10 10 10 9 9 9 7 8 11 14 15 10 11 10 9 nan
nan 8 8 9 9 10 10 10 9 10 9 10 9 10 10 13 14 10 11 10 7 nan
nan nan nan nan nan nan nan nan nan nan nan nan nan nan nan nan nan nan nan nan nan nan

GFSNIL_sfc_avort_006.txt.gz
Vorticity
nan nan nan nan nan nan nan nan nan nan nan nan nan nan nan nan nan nan nan nan nan nan
nan 10 9 8 9 9 8 8 7 8 8 8 8 9 10 9 9 9 9 10 9 nan
nan 8 9 8 8 9 8 9 7 8 8 8 9 9 10 9 7 8 8 9 7 nan
nan 9 9 8 8 8 8 7 8 8 8 9 9 9 9 7 8 8 10 8 6 nan
nan 8 8 8 8 8 9 8 8 9 9 9 9 8 8 8 8 10 9 6 9 nan
nan 8 8 8 8 8 8 8 8 9 9 9 8 9 8 8 10 10 7 8 9 nan
nan 8 8 8 8 8 8 8 9 10 9 8 8 8 9 10 10 7 7 9 9 nan
nan 8 7 8 8 8 9 9 9 9 10 9 9 6 5 8 10 9 8 9 10 nan
nan 8 8 8 8 9 9 10 10 10 10 9 5 -1 6 12 14 9 8 9 11 nan
nan 8 8 8 9 10 10 10 10 10 9 10 4 2 8 15 18 9 8 10 10 nan
nan 7 8 9 9 11 11 10 10 10 10 9 1 3 10 18 17 10 9 8 9 nan
nan 9 9 9 10 10 11 11 10 8 9 8 5 5 10 19 15 9 11 10 10 nan
nan 8 9 9 11 11 9 9 8 9 10 9 9 8 9 16 14 11 11 11 7 nan
nan nan nan nan nan nan nan nan nan nan nan nan nan nan nan nan nan nan nan nan nan nan

GFSNIL_sfc_avort_009.txt.gz
Vorticity
nan nan nan nan nan nan nan nan nan nan nan nan nan nan nan nan nan nan nan nan nan nan
nan 10 9 9 9 9 8 8 8 8 7 8 8 8 10 9 8 10 10 10 10 nan
nan 8 8 8 8 8 8 8 7 7 8 8 8 9 10 9 8 9 8 9 10 nan
nan 8 9 8 8 8 7 7 7 8 8 9 9 9 9 9 9 9 9 9 7 nan
nan 8 8 8 8 7 8 8 7 9 9 9 9 9 8 9 10 9 9 8 6 nan
nan 8 8 7 7 7 7 8 9 9 9 9 9 10 10 10 9 10 9 8 6 nan
nan 8 8 7 7 7 8 8 9 9 9 9 9 10 10 10 10 9 9 9 6 nan
nan 8 7 7 7 8 8 9 9 9 10 9 9 4 5 10 13 12 10 7 5 nan
nan 8 7 7 8 8 9 10 10 10 10 8 3 -1 7 13 17 14 9 6 8 nan
nan 8 8 8 8 9 10 10 10 10 9 9 2 1 8 16 21 14 8 7 9 nan
nan 7 7 8 8 10 10 9 10 10 9 9 2 2 10 19 21 13 10 11 9 nan
nan 7 7 8 9 11 10 10 10 8 9 9 3 3 11 20 17 10 13 13 9 nan
nan 7 8 9 11 11 9 9 8 9 9 8 6 4 7 18 15 10 11 10 8 nan
nan nan nan nan nan nan nan nan nan nan nan nan nan nan nan nan nan nan nan nan nan nan

GFSNIL_sfc_avort_012.txt.gz
Vorticity
nan nan nan nan nan nan nan nan nan nan nan nan nan nan nan nan nan nan nan nan nan nan
nan 10 9 9 9 9 9 8 8 8 8 8 8 8 9 9 8 9 9 9 10 nan
nan 8 9 9 8 8 8 8 7 7 8 8 8 8 9 9 8 9 9 9 9 nan
nan 9 9 9 8 8 8 7 7 8 8 8 8 9 9 9 9 9 9 9 8 nan
nan 9 8 8 8 8 7 7 7 8 8 9 9 9 9 9 10 10 10 9 9 nan
nan 9 8 8 7 7 7 8 8 9 9 10 10 9 10 10 10 10 9 10 9 nan
nan 8 8 8 7 7 8 8 9 10 9 10 10 11 11 10 10 10 11 11 9 nan
nan 8 8 7 7 8 9 9 9 9 10 9 10 7 8 12 12 12 11 10 9 nan
nan 8 8 7 8 8 8 9 9 9 10 9 3 0 9 15 17 13 10 10 11 nan
nan 8 8 8 8 8 9 9 8 9 9 10 2 2 9 16 20 12 10 9 9 nan
nan 8 7 8 8 9 9 8 9 9 9 10 1 1 8 18 19 10 10 10 11 nan
nan 8 7 7 9 10 9 9 10 9 9 9 3 -1 8 18 15 10 11 11 9 nan
nan 8 8 8 11 11 9 9 9 9 8 9 8 2 5 16 16 10 11 11 8 nan
nan nan nan nan nan nan nan nan nan nan nan nan nan nan nan nan nan nan nan nan nan nan

GFSNIL_sfc_avort_015.txt.gz
Vorticity
nan nan nan nan nan nan nan nan nan nan nan nan nan nan nan nan nan nan nan nan nan nan
nan 11 10 9 9 10 9 9 8 7 8 8 8 8 9 8 8 10 9 10 10 nan
nan 9 9 9 9 9 8 9 8 8 8 8 8 8 9 9 9 9 9 9 9 nan
nan 9 9 9 9 8 8 8 8 8 8 8 9 9 9 10 9 8 9 9 10 nan
nan 9 8 9 9 8 8 8 8 8 8 8 9 9 9 9 9 9 9 9 10 nan
nan 9 8 8 8 8 8 8 8 8 8 9 9 9 10 9 9 9 10 10 10 nan
nan 9 8 8 8 8 8 8 8 8 8 9 10 11 10 10 10 10 10 10 10 nan
nan 9 9 8 8 8 8 8 8 9 10 9 10 8 9 11 11 11 10 11 10 nan
nan 9 8 8 8 8 7 8 9 8 9 9 6 2 7 14 16 11 10 9 10 nan
nan 9 8 8 7 7 8 8 8 8 9 10 4 3 7 15 17 8 8 7 8 nan
nan 9 8 8 8 8 8 8 9 8 9 10 4 3 8 18 17 10 9 9 9 nan
nan 9 8 8 8 9 9 9 10 8 9 10 4 2 9 18 16 11 11 11 9 nan
nan 10 9 8 9 10 9 9 9 10 8 9 8 4 8 16 15 9 11 12 8 nan
nan nan nan nan nan nan nan nan nan nan nan nan nan nan nan nan nan nan nan nan nan nan

GFSNIL_sfc_avort_018.txt.gz
Vorticity
nan nan nan nan nan nan nan nan nan nan nan nan nan nan nan nan nan nan nan nan nan nan
nan 10 9 8 9 10 10 9 9 8 8 7 8 8 8 8 8 9 9 10 10 nan
nan 9 9 9 9 9 9 9 9 8 8 8 8 8 8 9 9 9 9 9 9 nan
nan 8 9 9 9 9 9 9 9 8 8 7 8 8 9 10 8 8 9 9 10 nan
nan 8 9 9 9 9 9 9 8 8 7 8 8 9 8 8 9 9 9 10 9 nan
nan 8 8 9 9 9 8 8 8 8 8 8 8 9 9 8 9 10 10 10 9 nan
nan 8 9 9 9 9 9 8 8 8 8 8 9 10 9 10 10 10 9 10 10 nan
nan 9 9 9 9 9 9 8 8 7 8 9 10 7 9 10 10 9 9 9 9 nan
nan 9 9 9 9 8 8 8 7 8 8 9 6 3 8 13 15 9 8 9 10 nan
nan 9 9 9 8 8 7 8 7 7 8 9 6 4 7 14 16 10 8 9 9 nan
nan 9 9 9 9 8 8 8 8 8 8 10 5 5 9 16 16 11 10 10 10 nan
nan 9 9 9 8 8 8 9 9 8 8 9 6 3 9 18 17 11 10 12 12 nan
nan 10 10 8 7 9 9 8 8 10 9 9 7 5 8 16 17 10 11 13 8 nan
nan nan nan nan nan nan nan nan nan nan nan nan nan nan nan nan nan nan nan nan nan nan

GFSNIL_sfc_avort_024.txt.gz
Vorticity
nan nan nan nan nan nan nan nan nan nan nan nan nan nan nan nan nan nan nan nan nan nan
nan 11 11 10 8 10 12 10 10 8 8 7 7 8 7 7 8 8 8 8 9 nan
nan 11 12 9 10 11 10 10 8 8 8 7 7 7 7 8 8 7 7 8 8 nan
nan 10 9 10 11 10 9 8 8 8 8 8 7 7 7 7 7 7 8 8 8 nan
nan 11 9 9 10 9 8 9 9 8 8 8 7 7 7 7 7 8 8 8 8 nan
nan 10 9 10 9 9 8 8 8 8 8 8 7 7 7 8 8 9 8 8 7 nan
nan 9 9 9 9 9 8 8 7 8 8 8 7 8 8 9 9 9 9 8 8 nan
nan 9 9 9 8 8 8 8 8 8 7 6 7 7 8 9 9 9 9 9 9 nan
nan 9 8 9 8 8 8 8 8 7 7 7 7 7 8 8 10 10 10 9 9 nan
nan 9 9 8 8 8 8 8 7 7 6 7 8 7 7 10 10 10 9 9 9 nan
nan 9 9 8 8 8 8 8 7 6 7 8 8 7 7 11 13 10 9 9 9 nan
nan 9 8 8 7 8 9 8 7 7 7 9 8 7 7 12 13 10 11 9 9 nan
nan 9 9 8 8 8 9 8 8 8 8 8 9 7 8 12 12 10 10 10 10 nan
nan nan nan nan nan nan nan nan nan nan nan nan nan nan nan nan nan nan nan nan nan nan

GFSNIL_sfc_avort_027.txt.gz
Vorticity
nan nan nan nan nan nan nan nan nan nan nan nan nan nan nan nan nan nan nan nan nan nan
nan 11 11 9 7 8 11 11 9 9 9 8 7 7 7 8 8 7 7 8 8 nan
nan 10 10 10 9 9 11 11 9 9 8 7 7 7 7 8 7 7 8 8 7 nan
nan 11 9 8 11 12 9 10 9 8 8 8 7 7 7 6 7 8 7 8 8 nan
nan 9 9 9 9 10 9 9 10 8 8 8 7 8 7 8 8 7 8 8 9 nan
nan 9 9 10 10 9 10 9 9 8 8 8 8 7 7 8 8 8 9 9 9 nan
nan 9 9 8 9 10 10 10 8 8 8 8 8 7 8 8 9 9 9 10 9 nan
nan 10 10 10 9 10 9 8 8 8 8 8 7 8 7 9 9 9 9 10 10 nan
nan 8 9 10 8 9 9 9 8 7 8 7 7 9 7 8 9 10 10 9 9 nan
nan 10 8 8 9 9 8 8 8 7 7 7 8 7 6 9 9 10 10 9 9 nan
nan 9 10 8 8 9 9 8 7 7 7 8 9 7 5 10 12 10 10 10 9 nan
nan 9 9 9 9 7 9 9 8 8 7 8 11 7 4 10 13 11 12 10 10 nan
nan 9 9 9 8 8 9 8 8 7 8 9 9 5 7 10 12 11 11 10 9 nan
nan nan nan nan nan nan nan nan nan nan nan nan nan nan nan nan nan nan nan nan nan nan